Location: Mapua
(41.2500°S, 173.1000°E)
Time: 13:58:41
(UTC+12:00)

N. Korean satellite - Visible Passes

Search period start: 25 June 2017 00:00
Search period end: 05 July 2017 00:00
Orbit: 461 x 518 km, 97.2° (Epoch: 24 June)

Date Brightness Start Highest point End Pass type
(mag) Time Alt. Az. Time Alt. Az. Time Alt. Az.
25 Jun 6.7 06:54:33 10° N 06:58:03 56° W 07:01:41 10° SSW visible
25 Jun 9.7 20:02:41 11° NW 20:02:41 11° NW 20:02:47 10° NW visible
26 Jun 6.8 06:31:36 10° NNE 06:35:09 70° ESE 06:38:51 10° S visible
26 Jun 9.2 19:39:31 14° NNW 19:39:31 14° NNW 19:40:09 10° NNW visible
27 Jun 8.2 06:09:03 10° NE 06:12:20 35° ESE 06:15:44 10° S visible
27 Jun 9.0 19:16:21 15° N 19:16:21 15° N 19:17:07 10° N visible
28 Jun 9.2 05:46:58 10° ENE 05:49:36 19° ESE 05:52:17 10° SSE visible
28 Jun 7.7 07:19:53 10° NNW 07:22:58 26° W 07:26:09 10° SW visible
28 Jun 9.0 18:53:11 13° NNE 18:53:11 13° NNE 18:53:39 10° NNE visible
29 Jun 9.8 05:26:01 10° ESE 05:26:57 11° ESE 05:27:53 10° SE visible
29 Jun 6.8 06:56:26 10° N 06:59:58 52° W 07:03:38 10° SSW visible
29 Jun 9.7 20:04:27 11° NW 20:04:27 11° NW 20:04:41 10° NW visible
30 Jun 6.8 06:33:27 10° NNE 06:37:04 76° ESE 06:40:48 10° S visible
30 Jun 9.2 19:41:17 16° NNW 19:41:17 16° NNW 19:42:04 10° NNW visible
01 Jul 8.1 06:10:51 10° NE 06:14:14 37° ESE 06:17:43 10° S visible
01 Jul 8.8 19:18:06 17° N 19:18:06 17° N 19:19:04 10° N visible
02 Jul 9.1 05:48:42 10° ENE 05:51:29 21° ESE 05:54:19 10° SSE visible
02 Jul 7.8 07:21:48 10° NNW 07:24:52 25° W 07:28:01 10° SW visible
02 Jul 8.9 18:54:55 14° NNE 18:54:55 14° NNE 18:55:38 10° NNE visible
03 Jul 9.8 05:27:28 10° E 05:28:48 12° ESE 05:30:10 10° SE visible
03 Jul 6.9 06:58:19 10° N 07:01:52 49° W 07:05:32 10° SSW visible
03 Jul 9.7 20:06:11 12° NW 20:06:11 12° NW 20:06:30 10° NW visible
04 Jul 6.7 06:35:17 10° NNE 06:38:56 81° ESE 06:42:43 10° S visible
04 Jul 9.1 19:43:00 17° NNW 19:43:00 17° NNW 19:43:56 10° NNW visible
